www.pogodaiklimat.ru
ПОГОДА в Кременце
Время
(UTC), дата
12 6.11
15 6.11
18 6.11
21 6.11
00 7.11
03 7.11
06 7.11
09 7.11
12 7.11
15 7.11
18 7.11
21 7.11
00 8.11
03 8.11
06 8.11
09 8.11
12 8.11
15 8.11
18 8.11
21 8.11
00 9.11
03 9.11
06 9.11
09 9.11
12 9.11
15 9.11
18 9.11
21 9.11
00 10.11
03 10.11
06 10.11
09 10.11
12 10.11
15 10.11
18 10.11
21 10.11
00 11.11
03 11.11
06 11.11
09 11.11
12 11.11
15 11.11
18 11.11
21 11.11
00 12.11
03 12.11
06 12.11
09 12.11
12 12.11
15 12.11
18 12.11
21 12.11
00 13.11
03 13.11
06 13.11
Ветер
(напр.,м/с)
Видим. Явления Облачность Т
(С)
Тd
(С)
f
(%)
Тe
(С)
Тes
(С)
Комфортность P
(гПа)
Po
(гПа)
Тmin
(С)
Tmax
(С)
R
(мм)
R24
(мм)
S
(см)
СЗ 4 11 км {ливн. осадки} 10/8 600 м
[Cb calv Ac As]
+9.3 +8.5 95 +6 +6 тепло 1003.0 967.0 1
З 3 12 км 9/9 600 м
[Sc]
+8.8 +7.3 90 +6 +6 тепло 1006.0 969.9
З 2 10 км 8/8 600 м
[Sc]
+8.4 +6.7 89 +6 +6 тепло 1008.0 971.7 +15.0 1
штиль 0 10 км 9/9 600 м
[Sc]
+6.6 +5.9 95 +6 +6 тепло 1009.0 972.5
ЮЗ 2 10 км 10/10 600 м
[Sc]
+7.4 +6.5 94 +5 +5 тепло 1010.0 973.5
штиль 0 10 км ясно +6.4 +5.7 95 +5 +5 тепло 1010.0 973.4
Ю 3 11 км 8/0
[Ac trans]
+6.6 +5.5 93 +3 +3 по сезону 1010.0 973.4 +5.0
ЮВ 3 15 км 9/8 600 м
[Cb calv Ac trans]
+8.0 +6.1 88 +5 +5 тепло 1010.0 973.6
ЮВ 1 19 км 9/5 600 м
[Sc Ac und]
+10.2 +7.6 84 +10 +10 тепло 1009.0 972.9
ЮВ 2 16 км 10/6 600 м
[Sc Ac As]
+10.0 +8.1 88 +8 +8 тепло 1009.0 972.9
Ю 2 10 км слаб. ливневой дождь 10/8 600 м
[Cb calv Ac und]
+9.8 +8.4 91 +8 +8 тепло 1009.0 972.9 +10.5 0.1
штиль 0 4000 м дымка 6/0
[Ac trans]
+7.4 +7.0 97 +6 +6 тепло 1011.0 974.5
Ю 1 200 м туман ?/? +7.1 +7.1 100 +6 +6 тепло 1013.0 976.4
Ю 1 200 м туман ?/? +5.4 +5.4 100 +4 +4 по сезону 1015.0 978.1
ЮЗ 1 100 м туман ?/? +4.0 +4.0 100 +2 +2 по сезону 1016.0 978.8 +3.9
В 2 10 км 8/0
[Ac trans]
+6.9 +6.5 97 +4 +4 по сезону 1017.0 980.2
В 3 8000 м дымка 10/0
[Ac As]
+7.7 +6.3 91 +5 +5 тепло 1016.0 979.3
В 2 9000 м слаб. ливневой дождь 10/8 600 м
[Cb calv Ac As]
+8.4 +6.9 90 +6 +6 тепло 1015.0 978.5
В 3 4000 м дымка {ливн. осадки} 10/8 600 м
[Sc Ac As]
+8.0 +7.1 94 +5 +5 тепло 1014.0 977.5 +8.6 2
В 3 4000 м слаб. ливневой дождь 10/10 600 м
[Cb calv]
+8.9 +8.1 95 +6 +6 тепло 1013.0 976.6
В 2 4000 м слаб. ливневой дождь 10/10 600 м
[Cb calv]
+10.2 +9.4 95 +9 +9 тепло 1012.0 975.8 2
ЮВ 3 4000 м дымка {ливн. осадки} 10/8 600 м
[Sc Ac As]
+11.8 +10.9 94 +10 +10 тепло 1011.0 975.1
Ю 4 8000 м дымка {ливн. осадки} 9/8 600 м
[Sc Ac und]
+12.4 +11.1 92 +10 +10 тепло 1012.0 976.1 +7.9 3
Ю 4 11 км 3/3 600 м
[Sc]
+13.0 +11.2 89 +11 +12 тепло 1013.0 977.2
Ю 2 14 км 5/0
[Ac trans Ci fib]
+17.2 +11.2 68 +18 +18 тепло 1012.0 976.7
ЮВ 2 14 км 5/0
[Ac trans Ci fib]
+14.9 +12.0 83 +15 +15 тепло 1012.0 976.4
ЮВ 5 10 км 4/0
[Ac trans]
+13.1 +11.2 88 +11 +11 тепло 1013.0 977.2 +17.5
ЮВ 5 10 км 6/0
[Ac trans]
+12.0 +10.4 90 +9 +9 тепло 1013.0 977.0
Ю 5 4000 м дымка 4/4 600 м
[Sc]
+10.8 +10.0 95 +8 +8 тепло 1012.0 975.9
ЮЗ 4 4000 м дымка {ливн. осадки} 5/3 600 м
[Cb calv Ac trans]
+10.1 +9.5 96 +7 +7 тепло 1012.0 975.8
ЮЗ 5 700 м туман {ливн. осадки} ?/? +9.8 +9.8 100 +6 +6 тепло 1011.0 974.8 +9.6 0.0
ЮВ 1 3600 м дымка {туман} 10/10 600 м
[Sc]
+11.5 +10.7 95 +11 +11 тепло 1011.0 975.0
Ю 2 8000 м дымка {туман} 8/8 600 м
[Sc]
+13.8 +11.1 84 +13 +13 тепло 1009.0 973.4
ЮВ 1 9000 м дымка 9/9 600 м
[Sc]
+14.0 +10.6 80 +14 +14 тепло 1009.0 973.4
штиль 0 4000 м дымка 9/9 600 м
[Sc]
+13.4 +11.1 86 +13 +13 тепло 1009.0 973.4 +15.0
штиль 0 4000 м слаб. ливневой дождь 10/8 600 м
[Cb calv Ac und]
+11.5 +11.0 97 +11 +11 тепло 1010.0 974.1
штиль 0 4000 м слаб. ливневой дождь 9/6 600 м
[Cb calv Ac As]
+11.9 +11.4 97 +11 +11 тепло 1011.0 975.1 1
З 1 4000 м дымка {ливн. осадки} 10/10 600 м
[Sc]
+9.8 +9.2 96 +9 +9 тепло 1012.0 975.8
штиль 0 5000 м дымка {ливн. осадки, туман} 10/10 600 м
[Sc]
+9.0 +8.9 99 +8 +8 тепло 1014.0 977.6 +8.8 1
З 3 16 км 8/8 600 м
[Sc]
+8.2 +7.0 92 +5 +5 тепло 1016.0 979.4
З 4 22 км 9/9 600 м
[Sc]
+8.4 +5.5 82 +5 +5 тепло 1018.0 981.4
З 1 18 км 10/10 600 м
[Sc]
+7.4 +4.5 82 +7 +7 тепло 1019.0 982.2
З 1 10 км 4/0
[Ac trans]
+5.3 +4.6 95 +4 +4 по сезону 1020.0 982.9 +9.0
Ю 3 10 км 3/0
[Ci fib]
+4.8 +3.3 90 +1 +1 по сезону 1021.0 983.8
Ю 6 10 км 3/0
[Ci fib]
+4.0 +3.6 97 -2 -2 по сезону 1020.0 982.7
ЮВ 8 10 км 10 баллов +4.6 +2.6 87 -1 -1 по сезону 1019.0 981.8
ЮВ 12 18 км 8/0
[Cs]
+4.0 +2.5 90 -3 -3 прохладно 1019.0 981.7 +3.5
ЮВ 6 20 км 9/0
[Cs]
+7.0 +4.5 84 +3 +3 по сезону 1019.0 982.1
ЮВ 4 23 км 8/3 600 м
[Sc Cs]
+10.4 +6.5 77 +8 +8 тепло 1016.0 979.7
ЮВ 2 19 км 5 баллов +11.0 +7.3 78 1016.0 979.8
ЮВ 3 10 км 3/0
[Ci fib]
+11.2 +6.9 75 +9 +9 тепло 1015.0 978.8 +12.0
ЮВ 6 10 км 10 баллов +10.8 +7.7 81 +8 +8 тепло 1014.0 977.8
ЮВ 10 10 км 10/0
[Cs]
+11.8 +8.5 80 +8 +8 тепло 1013.0 977.0
ЮВ 8 10 км 10 баллов +10.4 +7.6 83 +7 +7 тепло 1012.0 975.8
ЮВ 8 10 км 10 баллов +9.6 +7.4 86 +5 +5 тепло 1012.0 975.7 +9.3
Местоположение метеостанции Кременец (Тернопольская область, Украина): широта 50.10 долгота 25.72 высота над уровнем моря 302 м.
В архиве по умолчанию представлена погода в Кременце за последнюю неделю. Архивные данные за месяц целиком и за предыдущие месяцы, начиная с января 2011 года, Вы можете получить, выбрав интересующий диапазон дат из раскрывающегося списка и нажав кнопку "Найти!".
*Определитесь, кто Вы:
Внимание! Время в таблицах - всемирное. Для получения местного времени необходимо прибавить поправку, которая равна 2 ч.
Смотрите также архив погоды в соседних городах и на ближайших метеорологических станциях:
Партнеры нашего сайта:      
Пояснения к столбцам:
  • Ветер - указаны скорость ветра в м/с - средняя за 10 мин, порывы в срок и между сроками (в фигурных скобках) и направление, откуда дует ветер: С - северный,
  • СВ - северо-восточный, В - восточный, ЮВ - юго-восточный, Ю - южный, ЮЗ - юго-западный, З - западный, СЗ - северо-западный.
  • Видимость - горизонтальная дальность видимости в метрах или километрах. При видимости от 1 до 10 км при отсутствии осадков обычно наблюдается дымка, при ухудшении видимости до 1 км и менее - туман. В сухую погоду видимость может ухудшаться дымом, пылью или мглою.
  • Явления - указаны атмосферные явления, наблюдавшиеся в срок или в последний час перед сроком; фигурными скобками обозначены явления, наблюдавшиеся между сроками (за 1-3 часа до срока); квадратными скобками обозначены град или гололедные отложения с указанием их диаметра в мм.
  • Облачность - указаны через наклонную черту общая и нижняя облачность в баллах и высота нижней границы облаков в метрах; квадратными скобками обозначены формы облаков: Ci - перистые, Cs - перисто-слоистые, Cc - перисто-кучевые, Ac - высококучевые, As - высокослоистые, Sc - слоисто-кучевые, Ns - слоисто-дождевые, Cu - кучевые, Cb - кучево-дождевые. Подробнее классификацию облаков см. в Атласе облаков (PDF).
  • T - Температура воздуха - температура, измеренная на высоте 2 м над землей.
  • Td - Температура точки росы - температура, при понижении до которой содержащийся в воздухе водяной пар достигнет насыщения.
  • f - Относительная влажность воздуха - влажноcть воздуха, измеренная на высоте 2 м над землей.
  • Te - Эффективная температура - температура, которую ощущает одетый по сезону человек в тени. Характеристика душности погоды. При расчете учитывается влияние влажности воздуха и скорости ветра на теплоощущения человека.
  • Tes - Эффективная температура на солнце - температура, которую ощущает человек, с поправкой на солнечный нагрев. Характеристика знойности погоды. Зависит от высоты солнца над горизонтом, облачности и скорости ветра. Ночью, в пасмурную погоду, а также при ветре 12 м/с и более поправка равна нулю.
  • P - Атмосферное давление - приведенное к уровню моря атмосферное давление.
  • Po - Атмосферное давление - измеренное на уровне метеостанции атмосферное давление.
  • Tmin - Минимальная температура - минимум температуры воздуха на высоте 2 м над землей.
  • Tmax - Максимальная температура - максимум температуры воздуха на высоте 2 м над землей.
  • R - Количество осадков - Количество выпавших осадков за период времени, мм. При наведении курсора мыши на число - период времени, за который выпало указанное количество осадков.
  • R24 - Количество осадков - Количество выпавших осадков за 24 часа, мм.
  • S - Снежный покров - Высота снежного покрова, см. При наведении курсора мыши на число - состояние снежного покрова и степень покрытия местности в баллах.